Time,TemperatureF,DewpointF,PressureIn,WindDirection,WindDirectionDegrees,WindSpeedMPH,WindSpeedGustMPH,Humidity,HourlyPrecipIn,Conditions,Clouds,dailyrainin,SoftwareType,DateUTC
2013-02-10 00:03:00,29.3,27.0,29.96,SE,145,0.0,3.0,91,0.00,,,0.00,weatherlink.com 1.10,2013-02-10 06:03:00,
2013-02-10 00:18:00,29.2,27.0,29.96,SE,141,0.0,4.0,91,0.00,,,0.00,weatherlink.com 1.10,2013-02-10 06:18:00,
2013-02-10 00:33:00,29.0,27.0,29.95,SW,217,1.0,7.0,91,0.00,,,0.00,weatherlink.com 1.10,2013-02-10 06:33:00,
2013-02-10 00:48:00,28.9,26.0,29.95,SE,131,0.0,7.0,90,0.00,,,0.00,weatherlink.com 1.10,2013-02-10 06:48:00,
2013-02-10 01:03:00,28.9,26.0,29.95,SSE,158,0.0,4.0,90,0.00,,,0.00,weatherlink.com 1.10,2013-02-10 07:03:00,
2013-02-10 01:18:00,28.8,26.0,29.93,SE,128,0.0,5.0,90,0.00,,,0.00,weatherlink.com 1.10,2013-02-10 07:18:00,
2013-02-10 01:33:00,28.8,26.0,29.93,SSE,158,0.0,2.0,90,0.00,,,0.00,weatherlink.com 1.10,2013-02-10 07:33:00,
2013-02-10 01:48:00,28.7,26.0,29.93,East,82,0.0,3.0,90,0.00,,,0.00,weatherlink.com 1.10,2013-02-10 07:48:00,
2013-02-10 02:03:00,28.7,26.0,29.92,ESE,114,0.0,5.0,90,0.00,,,0.00,weatherlink.com 1.10,2013-02-10 08:03:00,
2013-02-10 02:19:00,28.7,26.0,29.91,ESE,105,0.0,4.0,90,0.00,,,0.00,weatherlink.com 1.10,2013-02-10 08:19:00,
2013-02-10 02:34:00,28.8,26.0,29.90,ENE,63,0.0,6.0,90,0.00,,,0.00,weatherlink.com 1.10,2013-02-10 08:34:00,
2013-02-10 02:48:00,28.8,26.0,29.89,ESE,107,0.0,2.0,90,0.00,,,0.00,weatherlink.com 1.10,2013-02-10 08:48:00,
2013-02-10 03:03:00,28.9,26.0,29.88,East,96,2.0,5.0,90,0.00,,,0.00,weatherlink.com 1.10,2013-02-10 09:03:00,
2013-02-10 03:18:00,28.8,26.0,29.86,East,90,1.0,2.0,90,0.00,,,0.00,weatherlink.com 1.10,2013-02-10 09:18:00,
2013-02-10 03:33:00,28.8,26.0,29.86,East,96,0.0,6.0,90,0.00,,,0.00,weatherlink.com 1.10,2013-02-10 09:33:00,
2013-02-10 03:49:00,28.8,26.0,29.84,ESE,109,0.0,3.0,90,0.00,,,0.00,weatherlink.com 1.10,2013-02-10 09:49:00,
2013-02-10 04:04:00,28.8,26.0,29.82,ENE,66,2.0,7.0,90,0.00,,,0.00,weatherlink.com 1.10,2013-02-10 10:04:00,
2013-02-10 04:19:00,28.8,27.0,29.83,East,98,0.0,5.0,91,0.00,,,0.00,weatherlink.com 1.10,2013-02-10 10:19:00,
2013-02-10 04:34:00,28.5,27.0,29.82,East,79,3.0,4.0,92,0.00,,,0.00,weatherlink.com 1.10,2013-02-10 10:34:00,
2013-02-10 04:49:00,28.4,27.0,29.80,NE,53,1.0,4.0,93,0.00,,,0.00,weatherlink.com 1.10,2013-02-10 10:49:00,
2013-02-10 05:04:00,28.1,26.0,29.80,ESE,120,0.0,4.0,93,0.00,,,0.00,weatherlink.com 1.10,2013-02-10 11:04:00,
2013-02-10 05:19:00,28.0,26.0,29.78,ENE,71,1.0,5.0,93,0.00,,,0.00,weatherlink.com 1.10,2013-02-10 11:19:00,
2013-02-10 05:34:00,28.1,26.0,29.76,ESE,117,5.0,9.0,93,0.00,,,0.00,weatherlink.com 1.10,2013-02-10 11:34:00,
2013-02-10 05:49:00,28.2,26.0,29.74,ENE,73,3.0,7.0,92,0.00,,,0.00,weatherlink.com 1.10,2013-02-10 11:49:00,
2013-02-10 06:04:00,28.2,26.0,29.75,ENE,70,2.0,7.0,91,0.00,,,0.00,weatherlink.com 1.10,2013-02-10 12:04:00,
2013-02-10 06:19:00,28.3,26.0,29.74,SSE,158,1.0,4.0,91,0.00,,,0.00,weatherlink.com 1.10,2013-02-10 12:19:00,
2013-02-10 06:34:00,28.3,26.0,29.72,ENE,72,6.0,8.0,91,0.00,,,0.00,weatherlink.com 1.10,2013-02-10 12:34:00,
2013-02-10 06:49:00,28.3,26.0,29.72,SW,218,1.0,6.0,91,0.00,,,0.00,weatherlink.com 1.10,2013-02-10 12:49:00,
2013-02-10 07:04:00,28.4,26.0,29.72,ENE,72,3.0,4.0,91,0.00,,,0.00,weatherlink.com 1.10,2013-02-10 13:04:00,
2013-02-10 07:19:00,28.4,26.0,29.70,ENE,58,3.0,6.0,91,0.00,,,0.00,weatherlink.com 1.10,2013-02-10 13:19:00,
2013-02-10 07:34:00,28.3,26.0,29.68,ENE,72,5.0,6.0,91,0.00,,,0.00,weatherlink.com 1.10,2013-02-10 13:34:00,
2013-02-10 07:49:00,28.2,26.0,29.66,ENE,70,0.0,7.0,91,0.00,,,0.00,weatherlink.com 1.10,2013-02-10 13:49:00,
2013-02-10 08:05:00,28.2,26.0,29.69,SE,144,3.0,7.0,91,0.00,,,0.00,weatherlink.com 1.10,2013-02-10 14:05:00,
2013-02-10 08:19:00,28.3,26.0,29.68,NE,40,5.0,5.0,92,0.00,,,0.00,weatherlink.com 1.10,2013-02-10 14:19:00,
2013-02-10 08:34:00,28.4,26.0,29.64,ENE,65,4.0,7.0,92,0.00,,,0.00,weatherlink.com 1.10,2013-02-10 14:34:00,
2013-02-10 08:49:00,28.6,27.0,29.62,NNE,31,1.0,7.0,92,0.00,,,0.00,weatherlink.com 1.10,2013-02-10 14:49:00,
2013-02-10 09:04:00,28.7,27.0,29.63,NE,53,1.0,9.0,92,0.00,,,0.00,weatherlink.com 1.10,2013-02-10 15:04:00,
2013-02-10 09:19:00,28.8,27.0,29.62,ENE,64,2.0,8.0,93,0.00,,,0.00,weatherlink.com 1.10,2013-02-10 15:19:00,
2013-02-10 09:34:00,29.2,28.0,29.61,SE,132,1.0,9.0,93,0.00,,,0.00,weatherlink.com 1.10,2013-02-10 15:34:00,
2013-02-10 09:49:00,29.3,28.0,29.59,ENE,71,2.0,8.0,93,0.00,,,0.00,weatherlink.com 1.10,2013-02-10 15:49:00,
2013-02-10 10:05:00,29.5,28.0,29.56,NE,53,2.0,7.0,94,0.00,,,0.00,weatherlink.com 1.10,2013-02-10 16:05:00,
2013-02-10 10:20:00,30.0,29.0,29.55,ENE,64,4.0,9.0,94,0.00,,,0.00,weatherlink.com 1.10,2013-02-10 16:20:00,
2013-02-10 10:35:00,30.4,29.0,29.56,ENE,65,4.0,7.0,94,0.00,,,0.00,weatherlink.com 1.10,2013-02-10 16:35:00,
2013-02-10 10:50:00,30.2,29.0,29.52,NNE,33,2.0,9.0,94,0.00,,,0.00,weatherlink.com 1.10,2013-02-10 16:50:00,
2013-02-10 11:05:00,30.7,30.0,29.50,NE,47,4.0,6.0,95,0.00,,,0.00,weatherlink.com 1.10,2013-02-10 17:05:00,
2013-02-10 11:20:00,31.1,30.0,29.49,ENE,57,3.0,4.0,95,0.00,,,0.00,weatherlink.com 1.10,2013-02-10 17:20:00,
2013-02-10 11:35:00,31.6,30.0,29.50,ENE,58,0.0,4.0,95,0.00,,,0.00,weatherlink.com 1.10,2013-02-10 17:35:00,
2013-02-10 11:50:00,31.7,31.0,29.48,ENE,68,2.0,3.0,95,0.00,,,0.00,weatherlink.com 1.10,2013-02-10 17:50:00,
2013-02-10 12:05:00,32.0,31.0,29.48,SE,142,0.0,2.0,96,0.00,,,0.00,weatherlink.com 1.10,2013-02-10 18:05:00,
2013-02-10 12:20:00,32.0,31.0,29.46,ENE,70,1.0,2.0,96,0.00,,,0.00,weatherlink.com 1.10,2013-02-10 18:20:00,
2013-02-10 12:35:00,32.2,31.0,29.45,NE,53,1.0,2.0,96,0.00,,,0.00,weatherlink.com 1.10,2013-02-10 18:35:00,
2013-02-10 12:50:00,32.4,31.0,29.43,East,100,1.0,1.0,96,0.00,,,0.00,weatherlink.com 1.10,2013-02-10 18:50:00,
2013-02-10 13:05:00,32.2,31.0,29.43,ENE,59,2.0,3.0,96,0.00,,,0.00,weatherlink.com 1.10,2013-02-10 19:05:00,
2013-02-10 13:20:00,32.0,31.0,29.41,ENE,74,0.0,2.0,96,0.00,,,0.00,weatherlink.com 1.10,2013-02-10 19:20:00,
2013-02-10 13:35:00,32.3,31.0,29.40,ENE,70,0.0,3.0,96,0.00,,,0.00,weatherlink.com 1.10,2013-02-10 19:35:00,
2013-02-10 13:50:00,32.4,31.0,29.39,ENE,64,0.0,3.0,96,0.00,,,0.00,weatherlink.com 1.10,2013-02-10 19:50:00,
2013-02-10 14:05:00,32.5,32.0,29.38,East,93,0.0,2.0,97,0.00,,,0.00,weatherlink.com 1.10,2013-02-10 20:05:00,
2013-02-10 14:21:00,32.8,32.0,29.37,ENE,64,0.0,2.0,97,0.00,,,0.00,weatherlink.com 1.10,2013-02-10 20:21:00,
2013-02-10 14:35:00,32.9,32.0,29.36,ENE,75,0.0,2.0,97,0.00,,,0.00,weatherlink.com 1.10,2013-02-10 20:35:00,
2013-02-10 14:50:00,33.0,32.0,29.36,NE,40,0.0,2.0,97,0.00,,,0.00,weatherlink.com 1.10,2013-02-10 20:50:00,
2013-02-10 15:06:00,33.1,32.0,29.35,East,81,1.0,4.0,97,0.00,,,0.00,weatherlink.com 1.10,2013-02-10 21:06:00,
2013-02-10 15:20:00,33.1,32.0,29.34,East,82,0.0,2.0,97,0.00,,,0.00,weatherlink.com 1.10,2013-02-10 21:20:00,
2013-02-10 15:35:00,33.3,33.0,29.34,ENE,64,0.0,0.0,97,0.00,,,0.00,weatherlink.com 1.10,2013-02-10 21:35:00,
2013-02-10 15:50:00,33.3,33.0,29.34,ENE,71,0.0,0.0,97,0.00,,,0.00,weatherlink.com 1.10,2013-02-10 21:50:00,
2013-02-10 16:05:00,33.4,33.0,29.33,ENE,64,0.0,0.0,97,0.00,,,0.00,weatherlink.com 1.10,2013-02-10 22:05:00,
2013-02-10 16:21:00,33.5,33.0,29.33,NNE,26,0.0,1.0,97,0.00,,,0.00,weatherlink.com 1.10,2013-02-10 22:21:00,
2013-02-10 16:36:00,33.4,33.0,29.32,ENE,59,0.0,2.0,97,0.00,,,0.00,weatherlink.com 1.10,2013-02-10 22:36:00,
2013-02-10 16:51:00,33.5,33.0,29.32,ENE,57,0.0,2.0,97,0.00,,,0.00,weatherlink.com 1.10,2013-02-10 22:51:00,
2013-02-10 17:06:00,33.6,33.0,29.32,NNE,26,0.0,1.0,97,0.00,,,0.00,weatherlink.com 1.10,2013-02-10 23:06:00,
2013-02-10 17:21:00,33.6,33.0,29.32,ENE,75,1.0,1.0,97,0.00,,,0.00,weatherlink.com 1.10,2013-02-10 23:21:00,
2013-02-10 17:36:00,33.6,33.0,29.31,NE,53,0.0,1.0,97,0.00,,,0.00,weatherlink.com 1.10,2013-02-10 23:36:00,
2013-02-10 17:52:00,33.6,33.0,29.31,ENE,57,0.0,1.0,97,0.00,,,0.00,weatherlink.com 1.10,2013-02-10 23:52:00,
2013-02-10 18:06:00,33.5,33.0,29.31,ENE,75,1.0,1.0,97,0.00,,,0.00,weatherlink.com 1.10,2013-02-11 00:06:00,
2013-02-10 18:21:00,33.5,33.0,29.31,ENE,66,0.0,1.0,97,0.00,,,0.00,weatherlink.com 1.10,2013-02-11 00:21:00,
2013-02-10 18:36:00,33.5,33.0,29.31,ENE,67,0.0,0.0,97,0.00,,,0.00,weatherlink.com 1.10,2013-02-11 00:36:00,
2013-02-10 18:51:00,33.4,33.0,29.30,ENE,67,0.0,1.0,97,0.00,,,0.00,weatherlink.com 1.10,2013-02-11 00:51:00,
2013-02-10 19:09:00,33.4,33.0,29.30,ENE,66,0.0,1.0,97,0.00,,,0.00,weatherlink.com 1.10,2013-02-11 01:09:00,
2013-02-10 19:21:00,33.3,33.0,29.30,NNE,26,0.0,1.0,97,0.00,,,0.00,weatherlink.com 1.10,2013-02-11 01:21:00,
2013-02-10 19:36:00,33.3,33.0,29.30,NNE,22,0.0,0.0,97,0.00,,,0.00,weatherlink.com 1.10,2013-02-11 01:36:00,
2013-02-10 19:51:00,33.2,33.0,29.30,ENE,58,0.0,1.0,97,0.00,,,0.00,weatherlink.com 1.10,2013-02-11 01:51:00,
2013-02-10 20:06:00,33.2,33.0,29.29,NNE,30,0.0,2.0,97,0.00,,,0.00,weatherlink.com 1.10,2013-02-11 02:06:00,
2013-02-10 20:21:00,33.1,32.0,29.29,NNE,33,0.0,0.0,97,0.00,,,0.00,weatherlink.com 1.10,2013-02-11 02:21:00,
2013-02-10 20:39:00,33.1,32.0,29.29,NNE,33,0.0,1.0,97,0.00,,,0.00,weatherlink.com 1.10,2013-02-11 02:39:00,
2013-02-10 20:51:00,33.1,32.0,29.29,NNE,23,0.0,1.0,97,0.00,,,0.00,weatherlink.com 1.10,2013-02-11 02:51:00,
2013-02-10 21:06:00,33.1,32.0,29.29,NNW,336,0.0,1.0,97,0.00,,,0.00,weatherlink.com 1.10,2013-02-11 03:06:00,
2013-02-10 21:21:00,33.1,32.0,29.29,NW,309,0.0,1.0,97,0.00,,,0.00,weatherlink.com 1.10,2013-02-11 03:21:00,
2013-02-10 21:36:00,33.1,32.0,29.29,NNW,342,0.0,1.0,97,0.00,,,0.00,weatherlink.com 1.10,2013-02-11 03:36:00,
2013-02-10 21:51:00,33.0,32.0,29.29,North,349,0.0,1.0,97,0.00,,,0.00,weatherlink.com 1.10,2013-02-11 03:51:00,
2013-02-10 22:06:00,32.7,32.0,29.29,WNW,288,0.0,2.0,97,0.00,,,0.00,weatherlink.com 1.10,2013-02-11 04:06:00,
2013-02-10 22:21:00,32.4,32.0,29.29,NW,318,0.0,3.0,97,0.00,,,0.00,weatherlink.com 1.10,2013-02-11 04:21:00,
2013-02-10 22:36:00,32.2,32.0,29.30,North,351,0.0,2.0,97,0.00,,,0.00,weatherlink.com 1.10,2013-02-11 04:36:00,
2013-02-10 22:51:00,31.9,31.0,29.30,NNW,347,1.0,2.0,97,0.00,,,0.00,weatherlink.com 1.10,2013-02-11 04:51:00,
2013-02-10 23:06:00,31.5,31.0,29.31,NNW,327,0.0,4.0,97,0.00,,,0.00,weatherlink.com 1.10,2013-02-11 05:06:00,
2013-02-10 23:21:00,31.2,31.0,29.32,WNW,292,1.0,4.0,97,0.00,,,0.00,weatherlink.com 1.10,2013-02-11 05:21:00,
2013-02-10 23:36:00,30.9,30.0,29.32,West,260,3.0,4.0,97,0.00,,,0.00,weatherlink.com 1.10,2013-02-11 05:36:00,
2013-02-10 23:51:00,30.6,30.0,29.33,NW,310,3.0,4.0,97,0.00,,,0.00,weatherlink.com 1.10,2013-02-11 05:51:00,